,,Stat6,,Stat2,,Stat8,,Stat9,,Stat10,,Wind1,,Wind1,
time,status,PA1M_AVG,status,PR1M_SUM,status,RH1M_AVG,status,SR1M_AVG,status,TA1M_AVG,status,W1dAve1m,status,W1sAve1m,
2008-10-26, 00:00:00,VALID,919.918,VALID,0,VALID,99.6404,VALID,-0.0509425,VALID,18.8755,VALID,134,VALID,0.671165,
2008-10-26, 00:01:00,VALID,919.913,VALID,0,VALID,99.7739,VALID,-0.0169808,VALID,18.8695,VALID,137,VALID,1.4233,
2008-10-26, 00:02:00,VALID,919.892,VALID,0,VALID,99.9667,VALID,-0.0169808,VALID,18.8598,VALID,142,VALID,1.36667,
2008-10-26, 00:03:00,VALID,919.896,VALID,0,VALID,100,VALID,-0.0339617,VALID,18.8568,VALID,140,VALID,1.49379,
2008-10-26, 00:04:00,VALID,919.884,VALID,0,VALID,100,VALID,0.0169808,VALID,18.8496,VALID,136,VALID,1.56027,
2008-10-26, 00:05:00,VALID,919.883,VALID,0,VALID,100,VALID,0,VALID,18.8236,VALID,130,VALID,0.974132,
2008-10-26, 00:06:00,VALID,919.866,VALID,0,VALID,100,VALID,0,VALID,18.8004,VALID,129,VALID,0,
2008-10-26, 00:07:00,VALID,919.844,VALID,0,VALID,100,VALID,-0.0509425,VALID,18.7979,VALID,138,VALID,0,
2008-10-26, 00:08:00,VALID,919.824,VALID,0,VALID,100,VALID,-0.0169808,VALID,18.8007,VALID,139,VALID,0.0015625,
2008-10-26, 00:09:00,VALID,919.793,VALID,0,VALID,100,VALID,-0.0169808,VALID,18.7909,VALID,145,VALID,0.230378,
2008-10-26, 00:10:00,VALID,919.772,VALID,0,VALID,100,VALID,-0.0169808,VALID,18.7977,VALID,144,VALID,0.0720703,
2008-10-26, 00:11:00,VALID,919.77,VALID,0,VALID,100,VALID,-0.0169808,VALID,18.8049,VALID,144,VALID,0,
2008-10-26, 00:12:00,VALID,919.757,VALID,0,VALID,100,VALID,-0.0169808,VALID,18.7947,VALID,145,VALID,0,
2008-10-26, 00:13:00,VALID,919.737,VALID,0,VALID,100,VALID,-0.0339617,VALID,18.7981,VALID,145,VALID,0,
2008-10-26, 00:14:00,VALID,919.738,VALID,0,VALID,100,VALID,-0.0509425,VALID,18.7685,VALID,142,VALID,0,
2008-10-26, 00:15:00,VALID,919.716,VALID,0,VALID,100,VALID,-0.0679233,VALID,18.7627,VALID,140,VALID,0,
2008-10-26, 00:16:00,VALID,919.702,VALID,0,VALID,100,VALID,-0.0339617,VALID,18.7235,VALID,139,VALID,0,
2008-10-26, 00:17:00,VALID,919.692,VALID,0,VALID,100,VALID,-0.0679233,VALID,18.6948,VALID,139,VALID,0,
2008-10-26, 00:18:00,VALID,919.664,VALID,0,VALID,100,VALID,-0.0509425,VALID,18.6716,VALID,139,VALID,0,
2008-10-26, 00:19:00,VALID,919.643,VALID,0,VALID,100,VALID,-0.0679233,VALID,18.6524,VALID,139,VALID,0,
2008-10-26, 00:20:01,VALID,919.619,VALID,0,VALID,100,VALID,-0.0849042,VALID,18.6262,VALID,139,VALID,0,
2008-10-26, 00:21:00,VALID,919.58,VALID,0,VALID,100,VALID,-0.0339617,VALID,18.6327,VALID,139,VALID,0,
2008-10-26, 00:22:00,VALID,919.556,VALID,0,VALID,100,VALID,-0.0679233,VALID,18.623,VALID,131,VALID,0,
2008-10-26, 00:23:00,VALID,919.523,VALID,0,VALID,100,VALID,-0.0849042,VALID,18.6137,VALID,131,VALID,0.0275213,
2008-10-26, 00:24:00,VALID,919.506,VALID,0,VALID,100,VALID,-0.101885,VALID,18.6075,VALID,116,VALID,0.125521,
2008-10-26, 00:25:00,VALID,919.486,VALID,0,VALID,100,VALID,-0.101885,VALID,18.601,VALID,108,VALID,0.00297619,
2008-10-26, 00:26:01,VALID,919.47,VALID,0,VALID,100,VALID,-0.0509425,VALID,18.623,VALID,108,VALID,0.0522104,
2008-10-26, 00:27:00,VALID,919.468,VALID,0,VALID,99.9855,VALID,-0.0509425,VALID,18.6195,VALID,108,VALID,0,
2008-10-26, 00:28:00,VALID,919.45,VALID,0,VALID,99.765,VALID,-0.0509425,VALID,18.6005,VALID,106,VALID,0,
2008-10-26, 00:29:00,VALID,919.45,VALID,0,VALID,99.6544,VALID,0,VALID,18.5387,VALID,96,VALID,0,
2008-10-26, 00:30:00,VALID,919.433,VALID,0,VALID,99.6671,VALID,-0.0169808,VALID,18.4698,VALID,96,VALID,0,
2008-10-26, 00:31:00,VALID,919.415,VALID,0,VALID,99.7307,VALID,0,VALID,18.4214,VALID,96,VALID,0,
2008-10-26, 00:32:00,VALID,919.408,VALID,0,VALID,99.9072,VALID,0,VALID,18.3925,VALID,96,VALID,0,
2008-10-26, 00:33:00,VALID,919.381,VALID,0,VALID,100,VALID,-0.0679233,VALID,18.4219,VALID,96,VALID,0,
2008-10-26, 00:34:00,VALID,919.352,VALID,0,VALID,100,VALID,-0.0339617,VALID,18.4705,VALID,96,VALID,0,
2008-10-26, 00:35:01,VALID,919.329,VALID,0,VALID,100,VALID,-0.0339617,VALID,18.4641,VALID,96,VALID,0,
2008-10-26, 00:36:01,VALID,919.317,VALID,0,VALID,100,VALID,-0.0169808,VALID,18.4636,VALID,99,VALID,0.50071,
2008-10-26, 00:37:00,VALID,919.301,VALID,0,VALID,100,VALID,-0.0339617,VALID,18.4898,VALID,104,VALID,0.00508721,
2008-10-26, 00:38:00,VALID,919.295,VALID,0,VALID,99.9336,VALID,0,VALID,18.4601,VALID,104,VALID,0,
2008-10-26, 00:39:01,VALID,919.273,VALID,0,VALID,99.6086,VALID,-0.0169808,VALID,18.376,VALID,104,VALID,0,
2008-10-26, 00:40:01,VALID,919.254,VALID,0,VALID,99.841,VALID,-0.0339617,VALID,18.3142,VALID,104,VALID,0,
2008-10-26, 00:41:01,VALID,919.233,VALID,0,VALID,100,VALID,-0.0509425,VALID,18.3473,VALID,104,VALID,0,
2008-10-26, 00:42:00,VALID,919.192,VALID,0,VALID,100,VALID,-0.0849042,VALID,18.402,VALID,104,VALID,0,
2008-10-26, 00:43:00,VALID,919.174,VALID,0,VALID,100,VALID,-0.0849042,VALID,18.4444,VALID,104,VALID,0,
2008-10-26, 00:44:00,VALID,919.151,VALID,0,VALID,100,VALID,-0.0679233,VALID,18.4409,VALID,104,VALID,0,
2008-10-26, 00:45:01,VALID,919.13,VALID,0,VALID,100,VALID,0,VALID,18.4701,VALID,106,VALID,0.379724,
2008-10-26, 00:46:00,VALID,919.11,VALID,0,VALID,100,VALID,-0.0509425,VALID,18.4768,VALID,106,VALID,0,
2008-10-26, 00:47:01,VALID,919.086,VALID,0,VALID,100,VALID,-0.0169808,VALID,18.4668,VALID,106,VALID,0,
2008-10-26, 00:48:01,VALID,919.079,VALID,0,VALID,100,VALID,-0.0169808,VALID,18.4474,VALID,106,VALID,0,
2008-10-26, 00:49:00,VALID,919.078,VALID,0,VALID,100,VALID,-0.0339617,VALID,18.4214,VALID,106,VALID,0,
2008-10-26, 00:50:00,VALID,919.065,VALID,0,VALID,100,VALID,-0.0169808,VALID,18.4115,VALID,106,VALID,0,
2008-10-26, 00:51:00,VALID,919.055,VALID,0,VALID,100,VALID,-0.0339617,VALID,18.4182,VALID,115,VALID,0.0613839,
2008-10-26, 00:52:00,VALID,919.041,VALID,0,VALID,100,VALID,-0.0679233,VALID,18.4082,VALID,140,VALID,0,
2008-10-26, 00:53:01,VALID,919.021,VALID,0,VALID,100,VALID,-0.0509425,VALID,18.4376,VALID,141,VALID,0,
2008-10-26, 00:54:01,VALID,919.002,VALID,0,VALID,100,VALID,-0.0169808,VALID,18.4536,VALID,144,VALID,0,
2008-10-26, 00:55:00,VALID,918.991,VALID,0,VALID,100,VALID,-0.0679233,VALID,18.4668,VALID,144,VALID,0,
2008-10-26, 00:56:00,VALID,918.971,VALID,0,VALID,100,VALID,-0.0509425,VALID,18.4571,VALID,144,VALID,0,
2008-10-26, 00:57:01,VALID,918.961,VALID,0,VALID,100,VALID,-0.0339617,VALID,18.4733,VALID,144,VALID,0,
2008-10-26, 00:58:01,VALID,918.952,VALID,0,VALID,100,VALID,-0.0339617,VALID,18.4698,VALID,144,VALID,0,
2008-10-26, 00:59:00,VALID,918.931,VALID,0,VALID,100,VALID,-0.0339617,VALID,18.4601,VALID,144,VALID,0,
2008-10-26, 01:00:00,VALID,918.915,VALID,0,VALID,100,VALID,-0.0339617,VALID,18.4439,VALID,144,VALID,0,
2008-10-26, 01:01:01,VALID,918.888,VALID,0,VALID,100,VALID,-0.0339617,VALID,18.4277,VALID,144,VALID,0,
2008-10-26, 01:02:01,VALID,918.877,VALID,0,VALID,100,VALID,-0.0339617,VALID,18.4082,VALID,144,VALID,0.119922,
2008-10-26, 01:03:00,VALID,918.858,VALID,0,VALID,100,VALID,-0.0339617,VALID,18.3985,VALID,148,VALID,0,
2008-10-26, 01:04:01,VALID,918.864,VALID,0,VALID,100,VALID,-0.0679233,VALID,18.4112,VALID,156,VALID,0,
2008-10-26, 01:05:00,VALID,918.851,VALID,0,VALID,100,VALID,-0.0339617,VALID,18.3885,VALID,156,VALID,0.199396,
2008-10-26, 01:06:01,VALID,918.833,VALID,0,VALID,100,VALID,-0.0169808,VALID,18.3823,VALID,156,VALID,0,
2008-10-26, 01:07:00,VALID,918.822,VALID,0,VALID,100,VALID,-0.0169808,VALID,18.3985,VALID,158,VALID,0,
2008-10-26, 01:08:00,VALID,918.801,VALID,0,VALID,100,VALID,-0.0509425,VALID,18.4376,VALID,161,VALID,0.474414,
2008-10-26, 01:09:00,VALID,918.792,VALID,0,VALID,100,VALID,-0.0509425,VALID,18.4471,VALID,162,VALID,0.00520833,
2008-10-26, 01:10:00,VALID,918.794,VALID,0,VALID,100,VALID,-0.0169808,VALID,18.4569,VALID,160,VALID,0,
2008-10-26, 01:11:01,VALID,918.805,VALID,0,VALID,100,VALID,0,VALID,18.4763,VALID,162,VALID,0.571646,
2008-10-26, 01:12:01,VALID,918.803,VALID,0,VALID,100,VALID,-0.0169808,VALID,18.502,VALID,159,VALID,0.659226,
2008-10-26, 01:13:01,VALID,918.808,VALID,0,VALID,100,VALID,-0.0509425,VALID,18.5085,VALID,155,VALID,0.933507,
2008-10-26, 01:14:01,VALID,918.795,VALID,0,VALID,100,VALID,-0.0169808,VALID,18.4958,VALID,159,VALID,0.849516,
2008-10-26, 01:15:00,VALID,918.784,VALID,0,VALID,100,VALID,0,VALID,18.4863,VALID,162,VALID,0.939862,
2008-10-26, 01:16:01,VALID,918.776,VALID,0,VALID,100,VALID,0,VALID,18.4469,VALID,162,VALID,0.783612,
2008-10-26, 01:17:01,VALID,918.752,VALID,0,VALID,100,VALID,-0.0169808,VALID,18.4112,VALID,157,VALID,0.0822173,
2008-10-26, 01:18:01,VALID,918.744,VALID,0,VALID,100,VALID,-0.0339617,VALID,18.3691,VALID,157,VALID,0,
2008-10-26, 01:19:01,VALID,918.713,VALID,0,VALID,100,VALID,-0.0509425,VALID,18.3466,VALID,157,VALID,0,
2008-10-26, 01:20:01,VALID,918.703,VALID,0,VALID,100,VALID,-0.0679233,VALID,18.3172,VALID,157,VALID,0,
2008-10-26, 01:21:01,VALID,918.691,VALID,0,VALID,100,VALID,-0.0339617,VALID,18.2915,VALID,157,VALID,0,
2008-10-26, 01:22:01,VALID,918.69,VALID,0,VALID,100,VALID,-0.0339617,VALID,18.2945,VALID,157,VALID,0,
2008-10-26, 01:23:01,VALID,918.677,VALID,0,VALID,100,VALID,-0.0509425,VALID,18.304,VALID,148,VALID,0.0790777,
2008-10-26, 01:24:00,VALID,918.66,VALID,0,VALID,100,VALID,0,VALID,18.3042,VALID,143,VALID,0,
2008-10-26, 01:25:00,VALID,918.665,VALID,0,VALID,100,VALID,0,VALID,18.2655,VALID,143,VALID,0,
2008-10-26, 01:26:00,VALID,918.656,VALID,0,VALID,100,VALID,-0.0339617,VALID,18.2071,VALID,143,VALID,0,
2008-10-26, 01:27:00,VALID,918.663,VALID,0,VALID,100,VALID,0,VALID,18.1775,VALID,143,VALID,0,
2008-10-26, 01:28:00,VALID,918.672,VALID,0,VALID,100,VALID,-0.0509425,VALID,18.1682,VALID,143,VALID,0.036258,
2008-10-26, 01:29:00,VALID,918.696,VALID,0,VALID,100,VALID,-0.0339617,VALID,18.1617,VALID,143,VALID,0,
2008-10-26, 01:30:00,VALID,918.699,VALID,0,VALID,100,VALID,-0.0169808,VALID,18.1423,VALID,141,VALID,0,
2008-10-26, 01:31:00,VALID,918.691,VALID,0,VALID,100,VALID,-0.0679233,VALID,18.1258,VALID,140,VALID,0,
2008-10-26, 01:32:00,VALID,918.677,VALID,0,VALID,100,VALID,-0.0339617,VALID,18.1228,VALID,140,VALID,0,
2008-10-26, 01:33:00,VALID,918.663,VALID,0,VALID,100,VALID,-0.0339617,VALID,18.1122,VALID,147,VALID,0.122514,
2008-10-26, 01:34:00,VALID,918.651,VALID,0,VALID,100,VALID,-0.0169808,VALID,18.1261,VALID,148,VALID,0.25142,
2008-10-26, 01:35:00,VALID,918.635,VALID,0,VALID,100,VALID,-0.0169808,VALID,18.1064,VALID,143,VALID,0.761242,
2008-10-26, 01:36:00,VALID,918.621,VALID,0,VALID,100,VALID,-0.0509425,VALID,18.0874,VALID,146,VALID,0,
2008-10-26, 01:37:00,VALID,918.609,VALID,0,VALID,100,VALID,-0.0169808,VALID,18.0804,VALID,149,VALID,0.0361111,
2008-10-26, 01:38:00,VALID,918.608,VALID,0,VALID,100,VALID,-0.0339617,VALID,18.0772,VALID,150,VALID,0.393714,
2008-10-26, 01:39:00,VALID,918.601,VALID,0,VALID,100,VALID,-0.0339617,VALID,18.048,VALID,153,VALID,0.427782,
2008-10-26, 01:40:00,VALID,918.605,VALID,0,VALID,100,VALID,-0.0339617,VALID,17.9994,VALID,146,VALID,0.288699,
2008-10-26, 01:41:00,VALID,918.604,VALID,0,VALID,100,VALID,0,VALID,17.9574,VALID,156,VALID,0,
2008-10-26, 01:42:00,VALID,918.598,VALID,0,VALID,100,VALID,0,VALID,17.9113,VALID,148,VALID,0.00111607,
2008-10-26, 01:43:00,VALID,918.576,VALID,0,VALID,100,VALID,0,VALID,17.8856,VALID,149,VALID,0.0458333,
2008-10-26, 01:44:00,VALID,918.555,VALID,0,VALID,100,VALID,-0.0169808,VALID,17.8569,VALID,151,VALID,0,
2008-10-26, 01:45:00,VALID,918.533,VALID,0,VALID,100,VALID,-0.0169808,VALID,17.8277,VALID,149,VALID,0,
2008-10-26, 01:46:00,VALID,918.508,VALID,0,VALID,100,VALID,0,VALID,17.8113,VALID,150,VALID,0,
2008-10-26, 01:47:00,VALID,918.475,VALID,0,VALID,100,VALID,-0.0169808,VALID,17.8117,VALID,148,VALID,0,
2008-10-26, 01:48:00,VALID,918.453,VALID,0,VALID,100,VALID,0,VALID,17.8085,VALID,152,VALID,0,
2008-10-26, 01:49:00,VALID,918.429,VALID,0,VALID,100,VALID,0,VALID,17.811,VALID,151,VALID,0,
2008-10-26, 01:50:00,VALID,918.396,VALID,0,VALID,100,VALID,0,VALID,17.8175,VALID,148,VALID,0,
2008-10-26, 01:51:00,VALID,918.37,VALID,0,VALID,100,VALID,-0.0169808,VALID,17.8439,VALID,149,VALID,0.0510538,
2008-10-26, 01:52:00,VALID,918.355,VALID,0,VALID,100,VALID,-0.0339617,VALID,17.8632,VALID,149,VALID,0,
2008-10-26, 01:53:00,VALID,918.347,VALID,0,VALID,100,VALID,-0.0679233,VALID,17.8988,VALID,149,VALID,0.204215,
2008-10-26, 01:54:00,VALID,918.335,VALID,0,VALID,100,VALID,-0.0679233,VALID,17.9345,VALID,149,VALID,0.00254755,
2008-10-26, 01:55:00,VALID,918.339,VALID,0,VALID,100,VALID,-0.0509425,VALID,17.9604,VALID,149,VALID,0,
2008-10-26, 01:56:00,VALID,918.341,VALID,0,VALID,100,VALID,-0.0169808,VALID,17.9604,VALID,149,VALID,0,
2008-10-26, 01:57:00,VALID,918.323,VALID,0,VALID,100,VALID,-0.0339617,VALID,17.9672,VALID,149,VALID,0,
2008-10-26, 01:58:00,VALID,918.305,VALID,0,VALID,100,VALID,-0.0169808,VALID,17.9503,VALID,149,VALID,0,
2008-10-26, 01:59:00,VALID,918.288,VALID,0,VALID,100,VALID,0,VALID,17.941,VALID,145,VALID,0,
2008-10-26, 02:00:00,VALID,918.276,VALID,0,VALID,100,VALID,0,VALID,17.9218,VALID,144,VALID,0,
2008-10-26, 02:01:00,VALID,918.257,VALID,0,VALID,100,VALID,-0.0169808,VALID,17.9185,VALID,144,VALID,0,
2008-10-26, 02:02:00,VALID,918.249,VALID,0,VALID,100,VALID,-0.0339617,VALID,17.9055,VALID,144,VALID,0,
2008-10-26, 02:03:00,VALID,918.236,VALID,0,VALID,100,VALID,-0.0339617,VALID,17.9058,VALID,144,VALID,0,
2008-10-26, 02:04:00,VALID,918.22,VALID,0,VALID,100,VALID,0,VALID,17.8923,VALID,144,VALID,0,
2008-10-26, 02:05:00,VALID,918.203,VALID,0,VALID,100,VALID,-0.0169808,VALID,17.8692,VALID,144,VALID,0,
2008-10-26, 02:06:00,VALID,918.183,VALID,0,VALID,100,VALID,-0.0169808,VALID,17.8696,VALID,144,VALID,0,
2008-10-26, 02:07:00,VALID,918.194,VALID,0,VALID,100,VALID,-0.0339617,VALID,17.8569,VALID,144,VALID,0,
2008-10-26, 02:08:00,VALID,918.186,VALID,0,VALID,100,VALID,-0.0169808,VALID,17.831,VALID,144,VALID,0,
2008-10-26, 02:09:00,VALID,918.178,VALID,0,VALID,100,VALID,-0.0169808,VALID,17.834,VALID,145,VALID,0,
2008-10-26, 02:10:00,VALID,918.162,VALID,0,VALID,100,VALID,-0.0169808,VALID,17.8634,VALID,148,VALID,0,
2008-10-26, 02:11:00,VALID,918.161,VALID,0,VALID,100,VALID,0,VALID,17.8921,VALID,155,VALID,0,
2008-10-26, 02:12:00,VALID,918.161,VALID,0,VALID,100,VALID,-0.0169808,VALID,17.9116,VALID,152,VALID,0,
2008-10-26, 02:13:00,VALID,918.144,VALID,0,VALID,100,VALID,-0.0339617,VALID,17.9086,VALID,149,VALID,0,
2008-10-26, 02:14:00,VALID,918.132,VALID,0,VALID,100,VALID,-0.0339617,VALID,17.8988,VALID,138,VALID,0,
2008-10-26, 02:15:00,VALID,918.123,VALID,0,VALID,100,VALID,-0.0339617,VALID,17.8757,VALID,135,VALID,1.09022,
2008-10-26, 02:16:00,VALID,918.108,VALID,0,VALID,100,VALID,-0.0169808,VALID,17.8761,VALID,136,VALID,0.761285,
2008-10-26, 02:17:00,VALID,918.106,VALID,0,VALID,100,VALID,-0.0169808,VALID,17.8856,VALID,136,VALID,0.372713,
2008-10-26, 02:18:00,VALID,918.093,VALID,0,VALID,100,VALID,-0.0509425,VALID,17.8893,VALID,136,VALID,0,
2008-10-26, 02:19:00,VALID,918.086,VALID,0,VALID,100,VALID,-0.0339617,VALID,17.8794,VALID,136,VALID,0,
2008-10-26, 02:20:00,VALID,918.062,VALID,0,VALID,99.999,VALID,-0.0169808,VALID,17.8766,VALID,137,VALID,0,
2008-10-26, 02:21:00,VALID,918.054,VALID,0,VALID,100,VALID,-0.0509425,VALID,17.8632,VALID,148,VALID,0.189024,
2008-10-26, 02:22:00,VALID,918.057,VALID,0,VALID,100,VALID,-0.0679233,VALID,17.8567,VALID,150,VALID,0,
2008-10-26, 02:23:00,VALID,918.072,VALID,0,VALID,100,VALID,-0.0169808,VALID,17.8534,VALID,152,VALID,0,
2008-10-26, 02:24:00,VALID,918.049,VALID,0,VALID,99.9896,VALID,0,VALID,17.8435,VALID,149,VALID,0,
2008-10-26, 02:25:00,VALID,918.049,VALID,0,VALID,100,VALID,0,VALID,17.8337,VALID,149,VALID,0,
2008-10-26, 02:26:00,VALID,918.041,VALID,0,VALID,99.9804,VALID,0,VALID,17.8171,VALID,148,VALID,0,
2008-10-26, 02:27:00,VALID,918.041,VALID,0,VALID,99.9825,VALID,0,VALID,17.8015,VALID,148,VALID,0,
2008-10-26, 02:28:00,VALID,918.031,VALID,0,VALID,99.9931,VALID,0,VALID,17.7752,VALID,148,VALID,0,
2008-10-26, 02:29:00,VALID,918.018,VALID,0,VALID,99.9746,VALID,-0.0169808,VALID,17.7589,VALID,146,VALID,0,
2008-10-26, 02:30:00,VALID,918.007,VALID,0,VALID,99.988,VALID,-0.0169808,VALID,17.7594,VALID,147,VALID,0,
2008-10-26, 02:31:00,VALID,917.991,VALID,0,VALID,99.9906,VALID,0,VALID,17.7622,VALID,148,VALID,0,
2008-10-26, 02:32:00,VALID,918.006,VALID,0,VALID,100,VALID,0,VALID,17.7717,VALID,144,VALID,0,
2008-10-26, 02:33:00,VALID,918.013,VALID,0,VALID,99.988,VALID,0,VALID,17.7883,VALID,148,VALID,0,
2008-10-26, 02:34:00,VALID,918.015,VALID,0,VALID,99.9036,VALID,-0.0169808,VALID,17.8043,VALID,144,VALID,0,
2008-10-26, 02:35:00,VALID,918.016,VALID,0,VALID,99.807,VALID,0.0169808,VALID,17.7972,VALID,148,VALID,0,
2008-10-26, 02:36:00,VALID,918.013,VALID,0,VALID,99.7726,VALID,0,VALID,17.8071,VALID,150,VALID,0,
2008-10-26, 02:37:00,VALID,918.007,VALID,0,VALID,99.6913,VALID,0.0169808,VALID,17.8169,VALID,151,VALID,0,
2008-10-26, 02:38:00,VALID,918.001,VALID,0,VALID,99.5031,VALID,0,VALID,17.7942,VALID,145,VALID,0,
2008-10-26, 02:39:00,VALID,918.01,VALID,0,VALID,99.3161,VALID,0.0169808,VALID,17.7745,VALID,124,VALID,0,
2008-10-26, 02:40:00,VALID,918.026,VALID,0,VALID,99.2615,VALID,0,VALID,17.7648,VALID,125,VALID,0,
2008-10-26, 02:41:00,VALID,918.019,VALID,0,VALID,99.2144,VALID,0.0169808,VALID,17.755,VALID,125,VALID,0,
2008-10-26, 02:42:00,VALID,918.008,VALID,0,VALID,99.2195,VALID,0.0169808,VALID,17.7483,VALID,126,VALID,0,
2008-10-26, 02:43:00,VALID,918,VALID,0,VALID,99.2754,VALID,-0.0169808,VALID,17.752,VALID,126,VALID,0,
2008-10-26, 02:44:00,VALID,917.997,VALID,0,VALID,99.3199,VALID,0.0169808,VALID,17.739,VALID,127,VALID,0,
2008-10-26, 02:45:00,VALID,918.007,VALID,0,VALID,99.4153,VALID,0.0169808,VALID,17.7161,VALID,131,VALID,0,
2008-10-26, 02:46:00,VALID,918.018,VALID,0,VALID,99.5018,VALID,0,VALID,17.7031,VALID,131,VALID,0,
2008-10-26, 02:47:00,VALID,918.029,VALID,0,VALID,99.5514,VALID,0,VALID,17.7034,VALID,134,VALID,0,
2008-10-26, 02:48:00,VALID,918.027,VALID,0,VALID,99.6378,VALID,0,VALID,17.6971,VALID,142,VALID,0,
2008-10-26, 02:49:00,VALID,918.034,VALID,0,VALID,99.6429,VALID,-0.0339617,VALID,17.7135,VALID,143,VALID,0,
2008-10-26, 02:50:00,VALID,918.02,VALID,0,VALID,99.6417,VALID,-0.0679233,VALID,17.7047,VALID,140,VALID,0,
2008-10-26, 02:51:00,VALID,917.994,VALID,0,VALID,99.7078,VALID,-0.0849042,VALID,17.7142,VALID,144,VALID,0,
2008-10-26, 02:52:00,VALID,917.953,VALID,0,VALID,99.6569,VALID,-0.0339617,VALID,17.7304,VALID,146,VALID,0,
2008-10-26, 02:53:00,VALID,917.941,VALID,0,VALID,99.5107,VALID,-0.0339617,VALID,17.7077,VALID,146,VALID,0,
2008-10-26, 02:54:00,VALID,917.94,VALID,0,VALID,99.5234,VALID,-0.0849042,VALID,17.6853,VALID,146,VALID,0,
2008-10-26, 02:55:00,VALID,917.937,VALID,0,VALID,99.6468,VALID,-0.0679233,VALID,17.6656,VALID,146,VALID,0,
2008-10-26, 02:56:00,VALID,917.953,VALID,0,VALID,99.7574,VALID,-0.0679233,VALID,17.6623,VALID,145,VALID,0,
2008-10-26, 02:57:00,VALID,917.955,VALID,0,VALID,99.8553,VALID,-0.101885,VALID,17.6623,VALID,144,VALID,0,
2008-10-26, 02:58:00,VALID,917.948,VALID,0,VALID,99.9791,VALID,-0.101885,VALID,17.6593,VALID,144,VALID,0,
2008-10-26, 02:59:00,VALID,917.949,VALID,0,VALID,99.999,VALID,-0.101885,VALID,17.6558,VALID,145,VALID,0,
2008-10-26, 03:00:00,VALID,917.936,VALID,0,VALID,99.9746,VALID,-0.0849042,VALID,17.6558,VALID,141,VALID,0,
2008-10-26, 03:01:00,VALID,917.937,VALID,0,VALID,99.8909,VALID,-0.0849042,VALID,17.6528,VALID,141,VALID,0,
2008-10-26, 03:02:00,VALID,917.94,VALID,0,VALID,99.8578,VALID,-0.0849042,VALID,17.6461,VALID,149,VALID,0,
2008-10-26, 03:03:00,VALID,917.931,VALID,0,VALID,99.737,VALID,-0.0679233,VALID,17.6327,VALID,149,VALID,0,
2008-10-26, 03:04:00,VALID,917.922,VALID,0,VALID,99.648,VALID,-0.101885,VALID,17.6332,VALID,147,VALID,0,
2008-10-26, 03:05:00,VALID,917.927,VALID,0,VALID,99.4713,VALID,-0.0509425,VALID,17.6133,VALID,146,VALID,0,
2008-10-26, 03:06:00,VALID,917.939,VALID,0,VALID,99.3212,VALID,-0.0679233,VALID,17.6332,VALID,146,VALID,0,
2008-10-26, 03:07:00,VALID,917.933,VALID,0,VALID,99.1623,VALID,-0.0849042,VALID,17.6297,VALID,152,VALID,0,
2008-10-26, 03:08:00,VALID,917.928,VALID,0,VALID,99.0974,VALID,-0.0679233,VALID,17.6267,VALID,152,VALID,0,
2008-10-26, 03:09:00,VALID,917.925,VALID,0,VALID,99.119,VALID,-0.0849042,VALID,17.6234,VALID,152,VALID,0,
2008-10-26, 03:10:00,VALID,917.908,VALID,0,VALID,99.3466,VALID,-0.0509425,VALID,17.6526,VALID,152,VALID,0,
2008-10-26, 03:11:00,VALID,917.913,VALID,0,VALID,99.4369,VALID,-0.101885,VALID,17.669,VALID,149,VALID,0,
2008-10-26, 03:12:00,VALID,917.908,VALID,0,VALID,99.6099,VALID,-0.118866,VALID,17.6626,VALID,146,VALID,0,
2008-10-26, 03:13:00,VALID,917.908,VALID,0,VALID,99.807,VALID,-0.0679233,VALID,17.6429,VALID,148,VALID,0,
2008-10-26, 03:14:00,VALID,917.902,VALID,0,VALID,99.9827,VALID,-0.0679233,VALID,17.6332,VALID,154,VALID,0,
2008-10-26, 03:15:00,VALID,917.899,VALID,0,VALID,100,VALID,-0.101885,VALID,17.604,VALID,150,VALID,0,
2008-10-26, 03:16:00,VALID,917.886,VALID,0,VALID,100,VALID,-0.101885,VALID,17.575,VALID,146,VALID,0,
2008-10-26, 03:17:00,VALID,917.893,VALID,0,VALID,100,VALID,-0.101885,VALID,17.5456,VALID,146,VALID,0,
2008-10-26, 03:18:00,VALID,917.885,VALID,0,VALID,100,VALID,-0.0679233,VALID,17.5424,VALID,146,VALID,0,
2008-10-26, 03:19:00,VALID,917.878,VALID,0,VALID,100,VALID,-0.0679233,VALID,17.5391,VALID,146,VALID,0,
2008-10-26, 03:20:00,VALID,917.865,VALID,0,VALID,100,VALID,-0.0339617,VALID,17.5426,VALID,145,VALID,0,
2008-10-26, 03:21:00,VALID,917.873,VALID,0,VALID,100,VALID,-0.0339617,VALID,17.5289,VALID,144,VALID,0,
2008-10-26, 03:22:00,VALID,917.863,VALID,0,VALID,100,VALID,-0.0339617,VALID,17.5324,VALID,144,VALID,0,
2008-10-26, 03:23:00,VALID,917.851,VALID,0,VALID,100,VALID,-0.0169808,VALID,17.5424,VALID,143,VALID,0,
2008-10-26, 03:24:00,VALID,917.854,VALID,0,VALID,100,VALID,-0.0509425,VALID,17.5261,VALID,138,VALID,0,
2008-10-26, 03:25:00,VALID,917.853,VALID,0,VALID,100,VALID,-0.0339617,VALID,17.5426,VALID,138,VALID,0,
2008-10-26, 03:26:00,VALID,917.857,VALID,0,VALID,100,VALID,-0.0509425,VALID,17.5426,VALID,138,VALID,0,
2008-10-26, 03:27:00,VALID,917.856,VALID,0,VALID,99.9916,VALID,-0.0849042,VALID,17.5488,VALID,138,VALID,0,
2008-10-26, 03:28:00,VALID,917.861,VALID,0,VALID,99.9682,VALID,-0.0849042,VALID,17.5683,VALID,139,VALID,0,
2008-10-26, 03:29:00,VALID,917.866,VALID,0,VALID,99.7294,VALID,-0.0849042,VALID,17.572,VALID,139,VALID,0,
2008-10-26, 03:30:00,VALID,917.883,VALID,0,VALID,99.5794,VALID,-0.0849042,VALID,17.5553,VALID,146,VALID,0,
2008-10-26, 03:31:00,VALID,917.882,VALID,0,VALID,99.4433,VALID,-0.0169808,VALID,17.5651,VALID,149,VALID,0.281783,
2008-10-26, 03:32:00,VALID,917.886,VALID,0,VALID,99.409,VALID,-0.0339617,VALID,17.585,VALID,149,VALID,0.9641,
2008-10-26, 03:33:00,VALID,917.893,VALID,0,VALID,99.3924,VALID,-0.0679233,VALID,17.6074,VALID,147,VALID,0.333333,
2008-10-26, 03:34:00,VALID,917.885,VALID,0,VALID,99.414,VALID,-0.0169808,VALID,17.607,VALID,147,VALID,0.0012718,
2008-10-26, 03:35:00,VALID,917.884,VALID,0,VALID,99.4535,VALID,-0.0509425,VALID,17.5975,VALID,136,VALID,0,
2008-10-26, 03:36:00,VALID,917.887,VALID,0,VALID,99.4191,VALID,-0.0679233,VALID,17.5683,VALID,134,VALID,0,
2008-10-26, 03:37:00,VALID,917.88,VALID,0,VALID,99.5666,VALID,-0.0679233,VALID,17.5683,VALID,146,VALID,0.00114329,
2008-10-26, 03:38:00,VALID,917.884,VALID,0,VALID,99.6874,VALID,-0.0679233,VALID,17.5813,VALID,142,VALID,0.0025436,
2008-10-26, 03:39:00,VALID,917.881,VALID,0,VALID,99.7294,VALID,-0.0169808,VALID,17.5942,VALID,151,VALID,0,
2008-10-26, 03:40:00,VALID,917.888,VALID,0,VALID,99.6811,VALID,-0.0679233,VALID,17.5878,VALID,158,VALID,0,
2008-10-26, 03:41:00,VALID,917.871,VALID,0,VALID,99.6811,VALID,-0.0509425,VALID,17.5942,VALID,157,VALID,0,
2008-10-26, 03:42:00,VALID,917.868,VALID,0,VALID,99.6569,VALID,-0.0849042,VALID,17.5813,VALID,152,VALID,0,
2008-10-26, 03:43:00,VALID,917.852,VALID,0,VALID,99.62,VALID,-0.0509425,VALID,17.5715,VALID,147,VALID,0,
2008-10-26, 03:44:00,VALID,917.857,VALID,0,VALID,99.5081,VALID,-0.0679233,VALID,17.5685,VALID,146,VALID,0,
2008-10-26, 03:45:00,VALID,917.851,VALID,0,VALID,99.4306,VALID,-0.0339617,VALID,17.5783,VALID,147,VALID,0,